FW7501 Weather Reports


Display with metric or nautical units.
time (UTC)temp
F
wind
direction
speed
MPH
gust
MPH
rain 1hr
in
rain 24hr
in
rain mn
in
humidity
%
barometer
mb
20260904014008 52 352 8.0 18.0 0.00 0.00 0.00 70 1019.1
20260904013507 52 28 11.0 18.0 0.00 0.00 0.00 68 1019.1
20260904013014 51 318 11.0 18.0 0.00 0.00 0.00 70 1019.1
20260904012504 51 8 10.0 18.0 0.00 0.00 0.00 71 1019.3
20260904012010 51 344 10.0 17.0 0.00 0.00 0.00 71 1019.3
20260904011509 51 345 9.0 20.0 0.00 0.00 0.00 72 1019.2
20260904011015 50 330 6.0 20.0 0.00 0.00 0.00 73 1019.3
20260904010512 50 28 9.0 16.0 0.00 0.00 0.00 72 1019.5
20260904010009 51 4 10.0 16.0 0.00 0.00 0.00 74 1019.6
20260904005515 50 1 7.0 12.0 0.00 0.00 0.00 75 1019.6
20260904005005 49 343 5.0 12.0 0.00 0.00 0.00 77 1019.6
20260904004506 49 33 4.0 11.0 0.00 0.00 0.00 77 1019.7
20260904004007 48 18 3.0 15.0 0.00 0.00 0.00 77 1020.0
20260904003507 49 82 6.0 15.0 0.00 0.00 0.00 77 1020.2
20260904003012 49 27 8.0 18.0 0.00 0.00 0.00 77 1020.4
20260904002510 49 12 10.0 18.0 0.00 0.00 0.00 77 1020.5
20260904002004 49 24 5.0 18.0 0.00 0.00 0.00 77 1020.4
20260904001518 49 24 9.0 18.0 0.00 0.00 0.00 76 1020.4
20260904001009 49 16 10.0 16.0 0.00 0.00 0.00 77 1020.3
20260904000512 48 340 10.0 16.0 0.00 0.00 0.00 76 1020.3
20260904000024 49 29 10.0 16.0 0.00 0.00 0.00 76 1020.4
20260903235511 49 20 6.0 12.0 0.00 0.00 0.00 78 1020.5
20260903235017 48 12 6.0 14.0 0.00 0.00 0.00 78 1020.5
20260903234519 49 12 9.0 14.0 0.00 0.00 0.00 79 1020.6
20260903234007 49 54 5.0 11.0 0.00 0.00 0.00 79 1020.5
20260903233506 48 347 5.0 11.0 0.00 0.00 0.00 80 1020.4
20260903233010 47 16 6.0 13.0 0.00 0.00 0.00 81 1020.4
20260903232508 47 355 10.0 14.0 0.00 0.00 0.00 80 1020.6
20260903232008 47 358 9.0 14.0 0.00 0.00 0.00 80 1020.8
20260903231513 47 330 8.0 13.0 0.00 0.00 0.00 79 1020.9
20260903231012 48 339 8.0 11.0 0.00 0.00 0.00 80 1020.9
20260903230509 47 325 7.0 12.0 0.00 0.00 0.00 79 1020.6
20260903230034 47 345 8.0 15.0 0.00 0.00 0.00 80 1020.7
20260903225514 46 337 9.0 15.0 0.00 0.00 0.00 79 1020.7
20260903225009 46 353 9.0 15.0 0.00 0.00 0.00 79 1020.9
20260903224533 46 342 9.0 16.0 0.00 0.00 0.00 78 1021.0
20260903224014 46 314 9.0 16.0 0.00 0.00 0.00 78 1021.2
20260903223506 46 350 9.0 15.0 0.00 0.00 0.00 78 1021.0
20260903223029 46 358 9.0 13.0 0.00 0.00 0.00 79 1021.0
20260903222512 46 317 6.0 10.0 0.00 0.00 0.00 80 1020.8
20260903222021 46 334 5.0 9.0 0.00 0.00 0.00 80 1020.6
20260903221512 45 345 4.0 6.0 0.00 0.00 0.00 81 1020.5
20260903221009 45 348 2.0 5.0 0.00 0.00 0.00 81 1020.4
20260903220508 44 358 2.0 6.0 0.00 0.00 0.00 81 1020.3
20260903220024 43 355 1.0 7.0 0.00 0.00 0.00 81 1020.3
20260903215509 43 2 4.0 7.0 0.00 0.00 0.00 81 1020.3
20260903215014 42 3 3.0 6.0 0.00 0.00 0.00 82 1020.3
20260903214529 41 341 0.0 4.0 0.00 0.00 0.00 81 1020.2
20260903214017 41 341 2.0 4.0 0.00 0.00 0.00 81 1020.2
20260903213514 40 331 1.0 3.0 0.00 0.00 0.00 81 1020.1
20260903213014 40 308 0.0 3.0 0.00 0.00 0.00 80 1020.0
20260903212517 40 308 1.0 4.0 0.00 0.00 0.00 79 1020.0
20260903212012 41 317 1.0 5.0 0.00 0.00 0.00 78 1019.9
20260903211534 42 343 2.0 5.0 0.00 0.00 0.00 78 1019.7
20260903211014 42 7 0.0 5.0 0.00 0.00 0.00 77 1019.6
20260903210510 42 351 2.0 5.0 0.00 0.00 0.00 77 1019.5
20260903210041 42 10 0.0 5.0 0.00 0.00 0.00 77 1019.4
20260903205508 43 360 1.0 5.0 0.00 0.00 0.00 77 1019.5
20260903205018 42 38 1.0 4.0 0.00 0.00 0.00 78 1019.4
20260903204520 42 47 2.0 4.0 0.00 0.00 0.00 79 1019.3
20260903204015 41 33 1.0 3.0 0.00 0.00 0.00 80 1019.3
20260903203515 41 35 0.0 2.0 0.00 0.00 0.00 80 1019.3
20260903203025 40 35 0.0 2.0 0.00 0.00 0.00 80 1019.2
20260903202514 40 9 0.0 2.0 0.00 0.00 0.00 78 1019.3
20260903202004 40 9 0.0 2.0 0.00 0.00 0.00 79 1019.4
20260903201507 40 9 0.0 3.0 0.00 0.00 0.00 79 1019.1
20260903201007 40 9 1.0 3.0 0.00 0.00 0.00 78 1019.4
20260903200507 40 27 0.0 0.0 0.00 0.00 0.00 78 1019.4
20260903200008 40 27 0.0 0.0 0.00 0.00 0.00 78 1019.3
20260903195508 40 27 0.0 0.0 0.00 0.00 0.00 77 1019.3
20260903195007 40 27 0.0 0.0 0.00 0.00 0.00 76 1019.3
20260903194514 41 27 0.0 0.0 0.00 0.00 0.00 75 1019.3
20260903194008 41 27 0.0 0.0 0.00 0.00 0.00 75 1019.2
20260903193503 41 27 0.0 0.0 0.00 0.00 0.00 74 1019.3
20260903193019 42 27 0.0 2.0 0.00 0.00 0.00 73 1019.3
20260903192504 43 27 0.0 2.0 0.00 0.00 0.00 73 1019.2
20260903192016 43 27 0.0 1.0 0.00 0.00 0.00 72 1019.2
20260903191504 43 27 0.0 1.0 0.00 0.00 0.00 72 1019.2
20260903191006 43 27 0.0 1.0 0.00 0.00 0.00 71 1019.1
20260903190507 44 27 0.0 3.0 0.00 0.00 0.00 72 1019.2
20260903190007 44 27 1.0 3.0 0.00 0.00 0.00 71 1019.2
20260903185503 44 13 0.0 3.0 0.00 0.00 0.00 71 1019.1
20260903185008 44 13 0.0 4.0 0.00 0.00 0.00 71 1019.1
20260903184508 44 18 1.0 4.0 0.00 0.00 0.00 71 1019.1
20260903184009 44 19 1.0 5.0 0.00 0.00 0.00 71 1019.2
20260903183511 44 15 2.0 5.0 0.00 0.00 0.00 72 1019.1
20260903183006 44 355 2.0 4.0 0.00 0.00 0.00 73 1019.1
20260903182513 44 18 0.0 4.0 0.00 0.00 0.00 73 1019.1
20260903182006 43 4 1.0 4.0 0.00 0.00 0.00 74 1019.1
20260903181505 43 33 1.0 4.0 0.00 0.00 0.00 74 1019.1
20260903181013 43 21 1.0 4.0 0.00 0.00 0.00 74 1019.1
20260903180508 43 19 0.0 4.0 0.00 0.00 0.00 72 1019.1
20260903180034 44 13 1.0 6.0 0.00 0.00 0.00 73 1019.0
20260903175510 44 12 2.0 6.0 0.00 0.00 0.00 72 1018.9
20260903175005 45 15 1.0 6.0 0.00 0.00 0.00 72 1018.9
20260903174508 45 10 2.0 4.0 0.00 0.00 0.00 72 1019.0
20260903174008 45 10 0.0 4.0 0.00 0.00 0.00 72 1019.0
20260903173509 45 18 1.0 4.0 0.00 0.00 0.00 72 1019.1
20260903173013 45 9 2.0 4.0 0.00 0.00 0.00 72 1019.0
20260903172504 45 20 2.0 4.0 0.00 0.00 0.00 72 1019.1
20260903172012 45 35 2.0 4.0 0.00 0.00 0.00 72 1019.1
20260903171514 45 18 2.0 4.0 0.00 0.00 0.00 72 1019.1
20260903171004 45 15 2.0 4.0 0.00 0.00 0.00 72 1019.1
20260903170514 45 20 2.0 4.0 0.00 0.00 0.00 71 1019.2
20260903170014 45 15 2.0 4.0 0.00 0.00 0.00 71 1019.2
20260903165517 45 28 2.0 4.0 0.00 0.00 0.00 72 1019.3
20260903165015 45 23 2.0 4.0 0.00 0.00 0.00 72 1019.4
20260903164511 45 26 2.0 5.0 0.00 0.00 0.00 72 1019.5
20260903164015 45 39 2.0 5.0 0.00 0.00 0.00 73 1019.5
20260903163506 45 25 2.0 4.0 0.00 0.00 0.00 73 1019.5
20260903163009 45 35 2.0 4.0 0.00 0.00 0.00 73 1019.6
20260903162507 45 25 2.0 5.0 0.00 0.00 0.00 73 1019.7
20260903162013 45 12 2.0 5.0 0.00 0.00 0.00 73 1019.8
20260903161518 45 18 2.0 5.0 0.00 0.00 0.00 73 1019.8
20260903161009 45 17 2.0 5.0 0.00 0.00 0.00 73 1019.8
20260903160512 46 5 2.0 4.0 0.00 0.00 0.00 73 1019.8
20260903160019 46 6 2.0 4.0 0.00 0.00 0.00 73 1019.9
20260903155514 46 12 2.0 5.0 0.00 0.00 0.00 74 1020.0
20260903155015 46 6 2.0 5.0 0.00 0.00 0.00 74 1020.0
20260903154511 46 17 2.0 4.0 0.00 0.00 0.00 76 1020.0
20260903154017 46 16 2.0 4.0 0.00 0.00 0.00 77 1020.1
20260903153517 45 7 2.0 6.0 0.00 0.00 0.00 79 1020.1
20260903153012 44 354 1.0 6.0 0.00 0.00 0.00 81 1020.1
20260903152517 43 360 1.0 3.0 0.00 0.00 0.00 82 1020.2
20260903152012 43 10 0.0 3.0 0.00 0.00 0.00 82 1020.3
20260903151513 43 10 0.0 3.0 0.00 0.00 0.00 82 1020.2
20260903151011 43 10 0.0 0.0 0.00 0.00 0.00 82 1020.2
20260903150511 43 10 0.0 0.0 0.00 0.00 0.00 82 1020.2
20260903150019 43 10 0.0 0.0 0.00 0.00 0.00 81 1020.3
20260903145517 43 10 0.0 0.0 0.00 0.00 0.00 81 1020.2
20260903145018 44 10 0.0 1.0 0.00 0.00 0.00 81 1020.2
20260903144527 44 10 0.0 3.0 0.00 0.00 0.00 81 1020.2
20260903144011 44 10 0.0 4.0 0.00 0.00 0.00 81 1020.2
20260903143513 44 10 0.0 4.0 0.00 0.00 0.00 80 1020.3
20260903143027 43 22 0.0 3.0 0.00 0.00 0.00 80 1020.2
20260903142513 43 23 2.0 3.0 0.00 0.00 0.00 78 1020.2
20260903142017 44 23 0.0 3.0 0.00 0.00 0.00 78 1020.2
20260903141535 45 23 1.0 3.0 0.00 0.00 0.00 77 1020.2
20260903141018 46 51 0.0 3.0 0.00 0.00 0.00 77 1020.2
20260903140514 46 51 0.0 3.0 0.00 0.00 0.00 75 1020.3
20260903140020 47 78 0.0 4.0 0.00 0.00 0.00 75 1020.3
20260903135510 48 78 0.0 4.0 0.00 0.00 0.00 75 1020.4
20260903135012 48 94 1.0 3.0 0.00 0.00 0.00 75 1020.3
20260903134516 48 108 1.0 3.0 0.00 0.00 0.00 75 1020.4
20260903134014 48 108 1.0 3.0 0.00 0.00 0.00 75 1020.4
20260903133515 48 108 1.0 3.0 0.00 0.00 0.00 74 1020.5
20260903133028 48 108 1.0 3.0 0.00 0.00 0.00 74 1020.5
20260903132515 48 108 1.0 4.0 0.00 0.00 0.00 74 1020.5
20260903132012 48 108 2.0 4.0 0.00 0.00 0.00 75 1020.6
20260903131528 48 116 1.0 3.0 0.00 0.00 0.00 75 1020.6
20260903131018 48 116 2.0 3.0 0.00 0.00 0.00 75 1020.6
20260903130520 48 116 2.0 3.0 0.00 0.00 0.00 76 1020.6
20260903130034 48 116 2.0 4.0 0.00 0.00 0.00 76 1020.6
20260903125514 47 116 2.0 4.0 0.00 0.00 0.00 76 1020.6
20260903125021 47 116 2.0 3.0 0.00 0.00 0.00 75 1020.7
20260903124533 48 116 2.0 4.0 0.00 0.00 0.00 75 1020.6
20260903124016 48 117 1.0 4.0 0.00 0.00 0.00 74 1020.6
20260903123512 48 143 2.0 3.0 0.00 0.00 0.00 74 1020.6
20260903123024 48 147 1.0 4.0 0.00 0.00 0.00 74 1020.6
20260903122516 49 147 2.0 4.0 0.00 0.00 0.00 74 1020.6
20260903122014 48 149 2.0 4.0 0.00 0.00 0.00 74 1020.5
20260903121527 48 142 2.0 4.0 0.00 0.00 0.00 75 1020.5
20260903121012 48 141 2.0 8.0 0.00 0.00 0.00 75 1020.5
20260903120518 48 151 2.0 8.0 0.00 0.00 0.00 76 1020.4
20260903120028 47 120 3.0 5.0 0.00 0.00 0.00 75 1020.4
20260903115519 48 142 1.0 4.0 0.00 0.00 0.00 73 1020.3
20260903115016 49 139 0.0 2.0 0.00 0.00 0.00 73 1020.3
20260903114528 49 133 1.0 2.0 0.00 0.00 0.00 72 1020.2
20260903114021 49 133 1.0 2.0 0.00 0.00 0.00 72 1020.1
20260903113515 50 133 0.0 2.0 0.00 0.00 0.00 72 1020.0
20260903113031 50 133 0.0 2.0 0.00 0.00 0.00 71 1019.9
20260903112518 50 133 0.0 3.0 0.00 0.00 0.00 71 1019.8
20260903112005 50 133 1.0 3.0 0.00 0.00 0.00 71 1019.8
20260903111504 50 133 1.0 3.0 0.00 0.00 0.00 70 1020.1
20260903111004 50 133 1.0 3.0 0.00 0.00 0.00 70 1020.0
20260903110505 50 145 1.0 3.0 0.00 0.00 0.00 70 1020.0
20260903110008 50 145 1.0 3.0 0.00 0.00 0.00 70 1019.9
20260903105503 50 147 0.0 2.0 0.00 0.00 0.00 69 1019.8
20260903105004 50 147 0.0 2.0 0.00 0.00 0.00 69 1019.8
20260903104514 50 147 0.0 2.0 0.00 0.00 0.00 69 1019.7
20260903104005 50 147 0.0 2.0 0.00 0.00 0.00 69 1019.7
20260903103508 50 147 0.0 1.0 0.00 0.00 0.00 68 1019.6
20260903103008 50 147 0.0 1.0 0.00 0.00 0.00 68 1019.5
20260903102504 50 147 0.0 1.0 0.00 0.00 0.00 68 1019.4
20260903102009 50 147 0.0 1.0 0.00 0.00 0.00 68 1019.2
20260903101512 51 147 0.0 2.0 0.00 0.00 0.00 67 1019.2
20260903101004 51 147 0.0 3.0 0.00 0.00 0.00 67 1019.2
20260903100503 51 147 0.0 3.0 0.00 0.00 0.00 67 1019.1
20260903100005 51 147 2.0 3.0 0.00 0.00 0.00 66 1019.1
20260903095504 51 147 2.0 3.0 0.00 0.00 0.00 67 1019.0
20260903095005 51 276 0.0 2.0 0.00 0.00 0.00 67 1018.9
20260903094503 51 276 0.0 2.0 0.00 0.00 0.00 66 1018.9
20260903094006 51 276 1.0 3.0 0.00 0.00 0.00 66 1018.9
20260903093506 51 276 1.0 3.0 0.00 0.00 0.00 65 1018.7
20260903093012 51 266 2.0 3.0 0.00 0.00 0.00 65 1018.7
20260903092507 51 191 0.0 2.0 0.00 0.00 0.00 66 1018.6
20260903092006 51 191 0.0 2.0 0.00 0.00 0.00 65 1018.6
20260903091531 51 191 0.0 2.0 0.00 0.00 0.00 65 1018.6
20260903091006 51 191 0.0 2.0 0.00 0.00 0.00 64 1018.5
20260903090503 52 191 0.0 3.0 0.00 0.00 0.00 64 1018.4
20260903090023 52 191 0.0 3.0 0.00 0.00 0.00 64 1018.4
20260903085505 53 191 1.0 4.0 0.00 0.00 0.00 63 1018.3
20260903085006 53 203 1.0 7.0 0.00 0.00 0.00 62 1018.1
20260903084509 53 233 2.0 8.0 0.00 0.00 0.00 62 1018.0
20260903084004 53 219 3.0 8.0 0.00 0.00 0.00 63 1018.0
20260903083507 53 258 2.0 8.0 0.00 0.00 0.00 62 1017.8
20260903083008 53 253 3.0 8.0 0.00 0.00 0.00 62 1017.7
20260903082508 54 264 2.0 7.0 0.00 0.00 0.00 61 1017.5
20260903082007 54 261 3.0 7.0 0.00 0.00 0.00 61 1017.4
20260903081505 54 249 2.0 6.0 0.00 0.00 0.00 61 1017.4
20260903081018 54 249 2.0 8.0 0.00 0.00 0.00 61 1017.4
20260903080515 55 248 3.0 8.0 0.00 0.00 0.00 61 1017.3
20260903080023 55 250 2.0 9.0 0.00 0.00 0.00 62 1017.3
20260903075513 55 270 3.0 9.0 0.00 0.00 0.00 62 1017.2
20260903075005 55 254 3.0 9.0 0.00 0.00 0.00 58 1017.1
20260903074525 56 248 2.0 9.0 0.00 0.00 0.00 58 1016.9
20260903074011 56 254 3.0 11.0 0.00 0.00 0.00 58 1016.8
20260903073505 56 260 5.0 11.0 0.00 0.00 0.00 58 1016.7
20260903073028 56 275 4.0 9.0 0.00 0.00 0.00 58 1016.7
20260903072506 56 244 4.0 9.0 0.00 0.00 0.00 58 1016.6
20260903072003 57 243 3.0 7.0 0.00 0.00 0.00 59 1016.4
20260903071521 57 263 3.0 8.0 0.00 0.00 0.00 61 1016.3
20260903071007 57 283 5.0 8.0 0.00 0.00 0.00 61 1016.2
20260903070516 57 282 1.0 4.0 0.00 0.00 0.00 64 1016.0
20260903070023 57 289 2.0 7.0 0.00 0.00 0.00 67 1016.0
20260903065509 57 285 2.0 9.0 0.00 0.00 0.00 69 1016.0
20260903065011 58 259 4.0 9.0 0.00 0.00 0.00 68 1015.8
20260903064514 58 293 5.0 12.0 0.00 0.00 0.00 67 1015.5
20260903064012 59 311 8.0 12.0 0.00 0.00 0.00 65 1015.3
20260903063515 59 14 4.0 10.0 0.00 0.00 0.00 64 1015.3
20260903063011 60 322 6.0 10.0 0.00 0.00 0.00 66 1015.3
20260903062516 59 299 5.0 10.0 0.00 0.00 0.00 71 1015.3
20260903062012 58 308 3.0 10.0 0.00 0.00 0.00 73 1015.3
20260903061513 58 320 6.0 15.0 0.00 0.00 0.00 73 1015.2
20260903061015 58 335 6.0 15.0 0.00 0.00 0.00 72 1015.3
20260903060508 57 322 4.0 11.0 0.00 0.00 0.00 73 1015.3
20260903060014 57 35 3.0 14.0 0.00 0.00 0.00 72 1015.2
20260903055513 57 358 5.0 14.0 0.00 0.00 0.00 72 1015.0
20260903055007 57 11 7.0 11.0 0.00 0.00 0.00 72 1015.1
20260903054522 57 13 2.0 11.0 0.00 0.00 0.00 72 1015.1
20260903054013 57 25 6.0 12.0 0.00 0.00 0.00 72 1015.2
20260903053504 57 43 3.0 12.0 0.00 0.00 0.00 72 1015.2
20260903053027 57 318 8.0 12.0 0.00 0.00 0.00 71 1015.2
20260903052510 57 341 5.0 10.0 0.00 0.00 0.00 72 1015.1
20260903052015 57 308 7.0 14.0 0.00 0.00 0.00 70 1015.1
20260903051525 58 315 9.0 14.0 0.00 0.00 0.00 62 1015.0
20260903051010 59 282 7.0 14.0 0.00 0.00 0.00 58 1015.0
20260903050514 59 283 8.0 14.0 0.00 0.00 0.00 58 1014.7
20260903050033 59 280 10.0 14.0 0.00 0.00 0.00 59 1014.7
20260903045510 59 262 5.0 17.0 0.00 0.00 0.00 62 1014.6
20260903045007 58 242 9.0 18.0 0.00 0.00 0.00 60 1014.8
20260903044517 59 233 12.0 18.0 0.00 0.00 0.00 59 1014.8
20260903044010 59 268 8.0 17.0 0.00 0.00 0.00 59 1014.8
20260903043512 59 236 10.0 14.0 0.00 0.00 0.00 63 1014.7
20260903043015 59 237 7.0 14.0 0.00 0.00 0.00 66 1014.8
20260903042518 59 265 5.0 11.0 0.00 0.00 0.00 69 1014.8
20260903042015 58 270 3.0 10.0 0.00 0.00 0.00 70 1014.7
20260903041535 57 235 1.0 10.0 0.00 0.00 0.00 72 1014.8
20260903041015 56 220 2.0 10.0 0.00 0.00 0.00 73 1014.9
20260903040510 56 189 4.0 11.0 0.00 0.00 0.00 73 1014.9
20260903040032 55 219 4.0 13.0 0.00 0.00 0.00 74 1014.8
20260903035514 55 193 8.0 20.0 0.00 0.00 0.00 74 1014.6
20260903035010 55 161 9.0 20.0 0.00 0.00 0.00 74 1014.6
20260903034535 54 100 4.0 16.0 0.00 0.00 0.00 76 1014.7
20260903034009 54 320 3.0 9.0 0.00 0.00 0.00 76 1014.5
20260903033512 54 299 4.0 17.0 0.00 0.00 0.00 77 1014.3
20260903033020 54 93 2.0 17.0 0.00 0.00 0.00 77 1013.9
20260903032514 54 348 5.0 18.0 0.00 0.00 0.00 77 1014.0
20260903032011 54 12 10.0 18.0 0.00 0.00 0.00 77 1014.0
20260903031534 54 6 9.0 19.0 0.00 0.00 0.00 77 1013.9
20260903031016 54 7 8.0 19.0 0.00 0.00 0.00 77 1014.0
20260903030518 54 10 12.0 20.0 0.00 0.00 0.00 75 1014.0
20260903030023 54 9 11.0 20.0 0.00 0.00 0.00 75 1013.9
20260903025515 54 8 11.0 18.0 0.00 0.00 0.00 74 1014.0
20260903025014 54 358 9.0 21.0 0.00 0.00 0.00 75 1013.9
20260903024518 54 9 13.0 21.0 0.00 0.00 0.00 74 1013.8
20260903024019 54 345 11.0 19.0 0.00 0.00 0.00 75 1013.8
20260903023516 54 347 9.0 19.0 0.00 0.00 0.00 74 1013.9
20260903023033 55 8 11.0 20.0 0.00 0.00 0.00 74 1014.0
20260903022519 55 17 10.0 20.0 0.00 0.00 0.00 74 1014.0
20260903022002 56 356 12.0 20.0 0.00 0.00 0.00 75 1014.1
20260903021510 55 343 11.0 21.0 0.00 0.00 0.00 78 1014.0
20260903021007 54 339 14.0 21.0 0.00 0.00 0.00 77 1014.0
20260903020503 54 29 9.0 19.0 0.00 0.00 0.00 78 1014.1
20260903020011 55 13 9.0 21.0 0.00 0.00 0.00 78 1014.3
20260903015503 54 349 9.0 22.0 0.00 0.00 0.00 78 1014.4
20260903015003 54 2 11.0 22.0 0.00 0.00 0.00 80 1014.3
20260903014504 53 352 12.0 22.0 0.00 0.00 0.00 80 1014.3